Location: Gro�wechsungen
(51.4926°N, 10.6901°E)
Time: 14:32:01
(UTC+00:00)

Cosmos 2082 Rocket - Pass Details

Date: 17 January 2021
Orbit: 832 x 854 km, 71.0° (Epoch: 04 March)

Event Time Altitude Azimuth Distance (km) Brightness Sun altitude
Rises 16:46:16 0° 321° (NW) 3,434 5.6 -9.8°
Reaches altitude 10° 16:50:43 10° 353° (N) 2,498 4.5 -10.5°
Maximum altitude 16:52:42 12° 13° (NNE) 2,377 4.2 -10.8°
Drops below altitude 10° 16:54:41 10° 34° (NE) 2,497 4.2 -11.1°
Enters shadow 16:55:10 - 38° (NE) 2,562 4.2 -11.1°
